Theta_e
303 303 303 304 304 304 303 303 302 301 300 300 301 301 302 302 302 302 302 302 303 303 303 303 303 303 303 303 303 303 302 302 302 302 301 301 300 299 299 298 297 296 295 294 293 293 294 294 294 294 294 294 294 294 294 294 294 294 294 294 294 293 292 292 291 291 290 290 290 290 290 290 290 290 290 290 289 288 288 288 288 288 289 289 289
301 302 302 303 303 303 304 304 304 303 302 300 300 300 301 301 301 301 302 302 302 302 302 302 302 302 302 302 302 302 302 302 302 302 302 301 301 300 299 299 298 296 295 294 293 293 293 293 293 294 294 294 294 294 294 294 294 294 294 294 294 293 293 292 291 291 290 290 290 290 290 290 290 289 289 289 289 288 288 288 288 289 289 289 289
298 299 300 301 301 302 303 303 303 303 303 302 301 300 300 300 300 300 300 301 301 301 301 301 301 301 301 301 301 301 301 301 301 302 302 302 301 300 300 300 299 298 296 295 294 293 293 293 293 293 293 293 294 294 294 294 294 294 294 294 294 293 292 292 291 291 291 290 290 290 290 289 289 289 289 290 290 290 289 289 289 289 289 289 289
297 297 298 298 299 300 301 302 302 302 303 303 302 301 300 300 300 300 299 299 299 300 300 300 300 300 300 300 300 300 301 301 301 301 302 302 302 301 301 300 300 299 298 297 295 294 293 293 293 293 293 293 293 293 294 294 294 294 294 293 293 293 292 292 292 291 291 290 290 289 289 289 289 289 290 290 290 291 291 290 290 289 289 289 289
295 295 296 297 297 298 298 299 300 301 302 302 302 302 301 301 300 300 299 299 299 299 299 299 299 299 300 300 300 300 300 300 300 300 301 301 301 302 302 301 300 299 299 298 296 295 294 293 293 293 293 293 293 293 294 294 294 294 294 293 293 293 292 292 292 291 290 290 290 289 289 289 289 289 290 290 291 291 291 290 290 289 289 289 289
292 293 294 295 296 296 297 297 297 298 300 301 301 301 301 301 301 301 300 299 299 298 298 298 298 298 299 299 299 299 299 299 299 299 300 300 300 300 301 301 301 300 299 298 297 297 295 294 293 293 293 293 293 293 293 294 294 294 293 293 293 293 292 292 291 291 290 290 289 289 289 289 289 289 290 290 290 290 290 290 289 289 289 289 289
291 292 292 292 293 294 295 295 296 296 297 299 300 301 301 301 301 301 300 300 299 298 298 298 298 298 298 298 298 298 298 298 298 298 298 298 299 299 299 300 300 300 299 299 298 297 296 295 294 294 293 293 293 293 293 293 293 293 293 293 293 293 292 291 291 290 290 289 289 289 289 289 289 289 289 289 290 289 289 289 289 288 288 288 288
291 291 291 291 292 292 292 293 294 295 295 296 298 299 301 301 301 301 301 300 299 298 297 297 297 297 297 297 297 297 297 297 297 297 297 297 297 298 298 299 299 299 299 299 298 297 297 295 294 294 294 293 293 293 293 293 293 293 293 293 292 292 291 291 290 290 289 289 288 288 288 288 289 289 289 289 289 289 288 288 288 288 287 287 287
291 291 291 291 291 291 291 292 292 293 294 295 296 297 298 300 300 300 300 300 300 299 298 297 296 296 296 296 296 296 296 296 296 296 296 297 297 297 297 298 298 298 298 298 297 297 297 296 295 294 293 292 292 292 292 293 293 293 293 293 292 292 291 290 290 290 289 289 288 288 288 288 289 288 288 288 288 288 287 287 287 286 286 286 286
291 291 291 291 291 291 291 291 291 292 292 293 294 295 295 297 298 300 299 299 299 299 299 298 296 296 295 295 295 295 295 296 296 296 296 296 296 296 296 297 297 297 298 297 297 296 296 296 295 294 293 292 291 291 291 292 292 292 292 292 292 292 291 291 290 290 289 288 288 288 288 288 288 288 287 287 287 287 287 286 286 285 285 285 285
290 290 290 290 290 290 291 291 291 291 291 292 292 293 294 295 296 298 299 299 297 297 297 297 296 295 294 294 294 294 295 295 295 295 296 296 295 295 295 296 296 296 297 297 297 296 296 295 294 293 292 291 291 291 291 291 291 291 291 291 290 290 290 290 290 290 289 288 287 287 287 288 288 287 287 287 287 286 286 285 285 284 284 284 285
289 289 289 289 289 289 290 290 290 291 291 291 291 292 292 293 294 296 297 298 297 296 295 295 295 294 293 293 293 293 294 294 294 294 294 295 295 294 294 294 295 295 296 296 296 296 295 295 294 293 292 291 290 290 290 290 290 290 290 290 289 288 288 289 289 289 288 288 287 287 287 288 287 286 286 286 286 285 285 284 284 284 284 284 284
289 289 289 289 288 288 288 289 289 290 290 290 291 291 291 292 293 294 295 297 297 296 295 294 293 293 292 292 292 293 293 293 293 293 294 294 294 293 293 293 294 294 294 295 296 295 295 294 293 293 292 290 289 289 289 289 289 289 289 288 288 287 287 288 288 288 287 287 286 287 287 287 286 286 286 286 285 285 284 284 284 284 284 283 284
288 288 288 288 288 288 287 287 287 288 288 289 290 290 290 290 291 292 293 295 296 297 295 294 293 292 292 292 292 292 292 292 292 292 293 293 292 293 292 292 292 293 293 294 294 295 294 294 294 293 292 291 290 289 289 289 289 288 288 287 287 287 287 287 287 287 287 286 286 286 287 286 286 286 286 285 285 284 283 284 284 283 283 283 283
287 287 287 287 288 287 287 286 286 286 286 287 288 289 290 290 290 290 291 292 294 296 296 295 293 292 291 291 291 291 291 291 291 291 292 291 291 291 291 291 291 292 292 293 293 293 294 293 293 292 292 291 290 290 289 289 289 288 288 288 287 287 287 287 287 287 287 286 286 286 286 286 286 286 286 285 284 283 283 283 283 283 282 282 283
286 286 286 286 286 286 286 286 286 286 285 285 286 287 288 289 289 290 290 291 292 294 295 295 294 292 291 291 290 291 291 291 290 291 291 290 290 290 290 290 291 291 291 292 292 292 292 292 292 291 291 291 290 289 289 289 288 288 288 287 287 287 287 287 287 287 286 286 286 286 286 286 286 285 285 284 283 283 283 283 282 282 281 281 282
285 285 285 286 286 285 285 285 285 285 285 285 285 285 286 287 288 289 289 290 291 292 293 294 295 293 292 291 290 290 290 290 290 290 290 290 290 289 289 290 290 290 291 291 291 291 291 291 291 290 290 290 289 288 288 288 288 287 287 287 287 286 286 286 287 287 285 285 285 285 285 286 285 284 283 283 283 283 283 282 281 281 280 280 280
285 285 285 285 285 285 285 285 285 285 285 285 285 285 285 285 286 287 288 288 289 290 291 293 294 294 293 292 290 290 290 290 290 289 289 289 289 289 289 289 289 290 290 290 290 290 290 290 290 290 289 289 288 288 287 287 287 287 287 287 286 286 286 286 287 286 285 284 284 284 284 285 284 283 283 283 282 282 282 282 281 280 280 279 279
284 284 284 284 285 285 285 285 285 285 285 285 285 285 285 285 285 285 286 287 288 289 290 291 293 294 294 293 292 290 289 289 289 289 289 289 288 288 288 288 288 289 289 289 289 288 288 288 289 288 288 288 287 286 286 286 286 287 287 286 286 286 286 287 287 285 285 284 284 284 283 284 284 283 283 282 281 280 281 281 280 280 280 279 279
283 283 284 284 284 284 284 284 284 284 284 285 285 285 285 285 284 285 285 286 287 288 288 289 291 293 294 294 293 292 290 289 288 288 288 288 288 287 287 288 288 288 288 288 288 288 288 287 287 287 287 286 286 285 285 285 286 286 286 286 286 286 287 287 286 285 285 284 284 284 284 284 284 283 281 280 280 280 280 280 280 280 279 279 279
283 283 283 284 284 284 284 284 284 284 284 284 284 285 285 285 284 284 285 285 286 287 288 288 289 291 292 294 294 294 292 290 289 288 288 288 288 287 287 287 287 287 287 287 288 288 288 287 287 287 286 286 285 284 284 284 285 285 286 286 286 286 286 287 286 285 284 283 283 283 283 283 283 281 280 279 279 279 280 280 280 279 279 279 278
282 283 283 283 284 284 284 284 284 284 284 284 284 284 285 285 285 284 284 285 285 285 286 287 288 289 290 292 294 294 294 292 290 289 287 287 287 287 287 287 287 287 287 287 287 287 287 287 287 286 286 286 285 284 283 283 284 285 285 285 285 285 286 286 286 284 283 282 282 282 282 282 281 280 279 278 278 279 279 279 279 279 279 278 278
282 282 282 283 283 283 283 284 284 284 284 284 283 284 284 284 284 284 284 284 284 285 285 286 287 287 289 290 292 294 294 293 292 290 288 287 286 286 286 286 286 286 286 287 287 287 287 287 286 286 286 285 285 285 283 283 284 284 284 284 285 286 287 287 285 283 282 281 281 282 282 281 280 279 278 279 279 279 279 279 279 278 278 278 277
281 281 282 282 283 283 283 283 283 283 284 283 283 283 284 284 284 284 284 284 284 284 285 285 286 287 288 288 290 292 293 294 293 292 290 288 286 285 285 286 286 286 286 286 286 286 286 286 286 286 285 285 285 284 283 282 283 284 285 285 285 286 287 285 283 282 281 281 281 281 281 280 279 278 278 279 279 279 279 278 278 278 278 277 277
280 281 281 282 282 282 282 283 283 283 283 283 283 283 283 283 284 284 284 284 284 284 285 285 285 286 287 287 288 290 292 293 294 293 292 290 287 285 285 285 286 285 285 285 285 285 285 285 285 285 285 284 284 283 282 282 283 284 285 286 286 286 285 284 282 281 281 281 281 281 280 279 278 278 278 278 278 278 278 278 278 278 277 277 277
278 279 280 281 281 281 281 282 283 283 283 282 282 282 282 282 283 283 283 283 283 284 284 285 285 285 286 287 287 288 289 292 293 293 292 290 288 285 284 285 285 285 285 285 285 285 284 284 284 284 283 283 282 282 282 282 283 284 285 286 285 284 284 283 283 282 281 281 281 280 279 278 278 278 278 278 278 278 278 278 278 277 277 277 278
275 276 278 279 279 279 279 280 280 281 282 282 281 282 282 281 281 281 282 282 282 283 284 284 284 284 285 286 287 287 288 290 292 292 291 290 289 286 284 284 285 285 285 285 285 285 284 283 283 283 282 281 281 282 283 283 283 283 283 283 283 282 283 283 282 282 281 281 280 279 278 277 277 277 277 277 277 278 278 277 277 277 277 277 278
272 273 274 275 276 276 276 276 276 277 278 279 279 280 281 280 279 280 281 281 280 281 282 283 283 284 284 285 285 286 287 289 291 292 292 291 289 288 285 284 284 285 285 284 285 285 284 284 283 282 281 281 281 282 283 283 282 282 281 281 281 281 282 282 281 281 280 279 278 278 277 277 277 277 277 277 277 277 277 277 277 277 277 277 277
270 270 271 272 273 273 273 272 273 273 274 276 277 278 279 279 278 279 281 281 280 280 280 282 282 283 283 284 285 285 286 288 289 291 291 290 289 288 286 284 284 284 284 284 284 284 284 283 282 282 281 281 281 281 281 281 281 281 281 280 281 281 281 281 281 280 280 279 278 277 277 277 276 276 276 277 277 276 276 276 276 277 277 277 277
267 268 269 268 269 269 269 270 270 270 270 272 273 275 277 277 276 277 280 281 280 279 279 281 282 283 282 283 284 285 286 287 288 288 288 288 287 287 286 285 284 284 284 284 284 284 284 283 282 282 282 281 281 281 280 280 280 281 281 280 280 281 281 281 281 280 279 278 277 277 276 276 276 276 276 276 276 276 276 276 276 276 276 276 276
265 265 265 265 265 265 266 266 267 268 268 268 269 271 274 275 275 275 276 278 278 278 278 280 281 282 282 283 284 284 285 286 286 286 287 287 287 286 286 284 284 284 284 283 283 283 283 283 282 282 282 281 281 280 280 280 280 280 280 280 280 280 281 281 280 279 278 278 277 276 276 276 276 276 276 276 276 276 276 276 276 276 276 276 276
263 263 263 263 263 263 263 263 264 265 266 267 268 269 271 271 273 275 276 275 275 277 278 279 281 282 282 283 283 283 284 285 285 285 286 286 286 286 285 284 284 284 284 284 283 283 283 282 282 282 282 281 280 280 280 280 280 280 280 280 280 281 281 280 279 278 278 277 276 276 276 276 275 275 275 275 275 275 276 276 276 276 276 276 276
262 262 262 262 262 262 262 263 263 264 266 266 267 268 268 267 268 272 275 276 276 276 277 279 280 282 282 283 283 283 284 284 284 284 285 285 285 285 285 284 284 283 283 283 283 282 282 282 282 282 282 281 280 280 280 280 280 280 280 281 281 281 280 279 278 277 277 276 276 276 275 275 275 275 275 275 275 275 276 275 275 275 275 276 275
262 262 262 262 262 262 262 262 263 264 264 265 265 265 265 265 265 268 272 275 275 276 277 278 280 281 282 283 283 283 283 283 283 283 284 284 284 284 284 284 284 283 283 283 282 282 282 281 281 281 281 281 280 280 280 280 280 280 281 281 281 281 279 278 277 277 276 276 276 276 275 275 275 275 275 275 275 275 275 275 275 275 275 275 275
262 261 261 261 261 262 262 262 262 262 262 263 263 263 264 265 266 268 270 273 275 276 277 278 279 280 281 282 282 283 283 283 283 283 283 283 283 283 283 283 283 283 283 282 282 282 281 281 281 281 281 281 280 280 280 280 280 280 281 281 281 279 278 278 277 277 276 276 276 275 275 274 274 275 275 275 275 275 275 275 275 275 275 275 274
261 261 261 261 261 261 261 261 261 262 262 262 262 263 263 264 266 268 270 272 274 276 277 279 279 280 280 281 282 283 283 283 283 283 282 282 282 282 282 282 283 283 283 282 282 281 281 281 281 281 281 281 281 280 280 280 280 281 281 281 280 279 278 277 277 276 276 276 275 275 274 274 274 275 275 275 275 274 275 274 274 274 274 274 274
261 261 261 262 262 262 262 262 261 262 262 262 263 263 264 265 266 267 269 271 273 275 276 277 278 279 280 280 281 282 283 283 283 283 282 281 281 281 282 282 283 283 283 282 281 281 281 281 281 281 281 282 281 281 280 280 281 281 280 279 278 278 277 277 276 276 276 275 274 274 274 274 274 274 274 274 274 274 274 274 274 274 274 273 274
262 262 262 262 262 261 261 262 262 262 263 263 264 265 265 266 267 268 269 271 272 274 275 277 278 279 279 279 280 282 283 282 282 283 282 281 281 281 281 282 282 283 283 282 281 280 280 280 280 281 281 282 282 281 281 280 280 280 279 278 277 277 276 276 275 275 275 274 274 274 274 274 274 274 274 274 274 274 274 274 273 273 273 273 273
262 262 263 262 262 262 262 262 262 263 263 263 264 265 266 266 267 268 268 269 270 272 274 275 277 278 279 279 280 281 281 281 282 282 282 281 281 281 281 281 282 282 282 282 281 280 280 280 280 280 281 282 282 282 281 280 279 278 278 277 277 276 275 275 275 274 274 274 274 274 274 274 274 274 274 274 274 274 274 273 273 273 273 273 272
263 263 264 264 263 263 263 262 262 263 263 263 264 264 265 266 267 267 268 268 269 271 272 274 275 277 278 279 279 280 280 280 281 282 282 281 281 281 281 281 282 282 282 281 281 280 279 280 280 280 281 281 282 281 280 279 278 278 277 276 276 276 275 275 274 274 274 274 274 274 274 274 274 274 274 274 274 273 273 273 273 273 272 272 271
264 264 265 265 265 264 263 263 263 263 263 264 264 265 266 267 267 268 269 270 270 271 272 273 275 276 277 278 278 279 279 279 280 281 281 281 281 280 280 281 281 282 282 281 280 279 279 280 280 280 281 281 281 280 279 278 278 277 276 276 275 275 274 274 274 274 274 274 274 274 273 273 274 274 274 273 273 273 273 273 273 272 271 271 271
265 265 265 266 265 265 264 264 264 264 264 264 265 266 266 267 268 269 270 271 272 272 273 274 275 276 277 277 278 278 279 279 280 280 281 281 280 280 280 280 281 281 281 281 280 280 280 280 280 280 280 280 279 278 278 277 277 276 276 275 275 274 274 274 274 274 273 273 273 273 273 273 273 273 273 273 273 273 273 272 272 272 271 271 270
265 266 266 266 266 266 266 266 266 266 266 266 266 266 267 267 268 268 270 271 272 273 273 274 275 276 276 277 278 278 279 279 279 280 280 280 280 280 280 280 281 281 281 280 280 280 280 280 280 279 279 279 278 278 278 277 276 276 275 275 274 274 273 273 273 273 273 273 273 273 273 273 273 273 273 273 272 272 272 272 272 271 271 270 269
266 266 267 267 267 267 267 267 267 267 267 267 267 267 268 268 268 269 270 272 273 274 274 275 275 276 276 277 277 278 278 279 279 279 280 280 280 280 280 280 280 280 280 280 280 280 280 280 279 279 278 277 277 277 276 276 275 275 274 274 274 273 273 273 273 273 273 273 273 273 273 273 273 273 272 272 272 272 272 272 271 271 270 269 268
266 267 267 268 268 268 269 269 269 268 268 268 268 269 269 269 270 271 272 272 273 274 275 275 276 276 276 277 277 277 278 279 279 279 279 279 279 279 279 279 280 280 280 280 280 280 279 279 279 278 277 276 276 275 275 274 274 274 273 273 273 273 273 273 273 273 273 272 272 272 272 272 272 272 272 272 271 271 271 271 271 270 269 268 268
267 267 267 268 269 269 270 270 270 270 270 270 270 270 270 271 271 272 273 273 274 274 275 275 275 276 276 276 277 277 278 279 279 279 279 279 279 279 279 279 279 279 279 279 279 279 278 278 278 277 276 275 275 274 274 273 273 273 272 272 272 272 272 272 272 272 272 272 272 272 272 272 272 272 271 271 271 271 270 270 270 269 268 268 267
267 267 268 268 269 270 270 270 271 271 271 271 271 271 272 272 272 273 273 274 274 274 275 275 275 276 276 276 276 277 278 278 279 279 279 278 278 278 278 278 278 278 278 278 278 277 277 276 276 276 275 274 274 274 273 273 273 272 272 272 272 272 272 272 272 272 272 272 272 272 272 272 271 271 271 271 270 270 269 269 269 268 267 267 267
267 268 268 269 269 270 270 270 271 271 271 271 272 272 272 273 273 273 274 274 274 274 275 275 275 276 276 276 276 277 277 278 278 278 278 278 277 277 277 277 278 277 277 277 277 276 276 275 274 274 274 273 273 273 273 272 272 272 272 272 272 272 272 272 272 272 272 272 272 272 271 271 271 271 270 269 269 269 269 269 268 267 267 267 267
268 268 268 269 269 269 270 270 271 271 271 271 272 272 272 273 273 273 274 274 274 274 275 275 275 276 276 276 276 277 277 277 278 278 277 277 276 276 276 277 277 277 277 276 276 275 274 274 273 273 272 272 272 272 272 272 272 271 272 272 272 272 272 272 272 272 272 271 271 271 271 271 270 270 269 269 269 269 269 268 268 267 267 267 267
269 268 268 269 269 269 269 270 270 270 271 271 271 272 272 272 273 273 273 273 274 274 274 275 275 275 276 276 276 276 276 276 277 276 276 276 275 275 276 276 276 276 276 275 274 274 273 273 272 272 272 272 272 271 271 271 271 271 271 271 271 271 271 271 271 271 271 271 271 271 271 270 269 269 269 269 269 268 268 267 267 267 267 267 267
269 269 269 269 269 269 269 269 270 270 270 271 271 271 272 272 272 272 273 273 273 273 274 274 275 275 275 275 275 275 276 276 275 275 275 275 275 275 275 275 275 275 274 274 273 272 272 272 272 272 271 271 271 271 271 271 271 271 271 271 271 271 271 271 271 271 271 271 270 270 270 269 269 269 269 268 268 267 267 267 267 267 267 267 267
Wind_Speed
24 25 25 25 24 23 21 20 19 19 21 24 28 30 32 34 36 37 39 40 40 41 42 43 43 43 43 43 43 43 44 44 44 46 47 49 50 51 52 52 52 52 52 52 53 52 51 50 49 47 45 43 41 39 36 34 32 30 29 28 26 25 24 22 20 20 21 20 19 18 17 17 17 16 15 14 14 14 14 15 16 17 17 17 17
25 25 25 25 25 25 24 24 22 21 21 21 23 25 28 30 32 35 38 39 40 42 43 43 44 44 44 45 45 45 45 44 43 44 45 47 49 51 52 52 53 53 54 54 54 54 53 52 51 49 47 45 43 40 38 36 34 33 31 30 28 26 25 23 21 21 22 22 21 19 19 18 17 17 16 15 14 15 15 16 18 18 18 17 17
26 26 26 25 26 26 26 26 25 25 24 23 22 23 25 26 28 31 34 36 38 40 42 43 44 45 46 46 47 47 47 46 45 44 45 46 48 50 51 52 53 54 55 56 56 56 55 54 53 51 49 47 45 43 40 38 37 36 34 32 30 28 26 24 23 22 23 23 22 21 21 20 18 18 18 17 16 17 18 18 20 20 19 18 17
27 27 27 26 26 26 27 27 27 27 26 26 25 24 24 24 26 29 31 34 36 38 40 42 44 45 47 48 48 49 49 49 48 47 47 47 48 49 50 52 53 55 56 56 56 56 57 56 55 53 51 49 47 45 43 42 40 38 36 34 32 29 27 26 25 24 24 24 24 23 22 22 21 21 21 20 20 21 21 21 22 21 20 18 18
29 28 28 27 27 27 27 28 28 28 28 28 27 27 26 25 25 27 29 32 35 37 39 41 43 45 47 48 49 50 51 51 51 50 49 49 49 49 50 51 53 54 56 56 56 56 57 57 56 54 53 52 50 48 46 45 44 41 39 36 34 31 29 28 27 27 26 26 25 25 24 23 23 22 23 22 22 23 23 23 23 22 21 19 19
33 32 31 30 29 28 28 29 30 30 30 30 29 29 28 27 27 27 28 31 34 36 39 41 43 44 46 47 49 50 52 52 53 52 51 51 51 51 51 52 52 53 55 56 56 57 57 57 57 56 56 54 53 51 49 48 46 44 41 38 36 33 31 30 29 29 28 27 26 26 25 25 24 23 24 24 23 23 25 24 23 22 22 21 20
35 34 34 33 32 31 30 30 30 31 31 31 31 30 30 29 29 30 29 29 31 34 37 40 42 43 45 47 48 50 51 52 53 54 53 53 52 53 53 53 53 54 54 55 56 57 58 58 58 58 57 56 54 52 51 50 48 46 43 39 37 35 34 32 31 30 29 28 27 26 26 26 25 24 24 24 23 23 25 24 23 22 22 21 19
37 37 36 35 35 35 33 32 30 30 30 31 31 31 31 31 31 31 31 32 32 32 34 37 40 42 44 46 48 49 50 52 53 54 55 54 54 54 54 54 54 55 55 56 57 58 58 59 60 59 58 56 55 54 52 51 49 46 44 41 39 37 35 34 32 31 30 29 27 27 26 27 26 24 24 24 24 23 24 24 22 21 21 20 17
38 38 37 36 36 35 35 34 32 31 29 29 30 30 31 31 31 31 31 33 34 34 33 34 37 40 43 45 47 48 50 52 53 54 55 55 55 55 54 54 55 56 57 58 59 60 60 60 61 60 58 57 56 55 53 51 50 48 45 43 41 39 36 35 34 33 32 30 29 28 28 28 27 25 24 24 23 22 22 23 22 20 20 18 15
38 38 37 37 36 35 35 35 34 34 32 31 30 29 30 31 32 32 31 31 33 35 35 35 36 38 42 44 46 48 50 51 52 53 54 55 55 55 55 55 55 56 58 60 61 62 61 61 61 61 60 59 58 56 54 53 50 48 45 43 42 40 39 37 36 34 33 32 30 29 29 28 26 25 24 23 23 22 21 21 20 19 19 19 15
38 38 38 38 37 36 35 35 35 35 35 34 33 31 30 31 31 32 32 31 31 32 34 35 35 36 40 43 45 48 50 50 50 51 52 53 54 54 55 55 56 57 58 61 62 62 62 62 62 63 62 61 60 58 56 54 51 48 45 42 40 39 38 38 36 35 34 33 31 29 28 27 25 25 25 24 23 22 21 20 19 18 20 19 16
36 37 38 39 39 38 37 36 36 35 35 35 35 34 32 31 31 32 32 32 30 30 31 33 34 34 38 41 43 46 48 49 50 51 51 52 53 53 54 55 56 57 58 60 61 62 63 63 63 64 64 62 61 59 57 55 52 49 46 43 41 39 38 37 36 35 34 33 31 30 28 26 26 26 26 24 23 21 20 19 18 20 20 19 17
35 36 37 39 40 40 40 39 38 37 35 35 35 35 34 32 31 32 32 32 31 30 30 31 32 33 36 39 42 44 46 48 49 50 50 51 52 52 53 55 56 57 57 59 60 62 63 63 63 64 64 63 61 60 59 56 53 49 46 44 43 42 40 39 37 36 34 33 31 29 28 26 27 26 25 23 22 21 20 19 19 21 21 19 18
36 36 37 38 39 41 41 41 41 40 38 37 36 35 35 34 33 32 32 33 32 31 30 29 30 31 33 36 39 43 45 46 47 49 49 50 51 51 52 54 55 56 57 58 59 61 62 63 63 63 63 62 62 61 60 57 54 51 48 47 46 44 42 40 38 36 35 34 32 30 28 28 27 26 24 23 22 21 20 20 20 21 20 18 17
36 37 37 38 39 40 42 43 43 42 42 41 39 38 37 36 35 34 33 33 33 33 31 30 29 30 31 33 36 40 42 43 45 46 47 48 49 50 51 53 54 56 57 58 59 60 61 62 62 62 61 61 61 61 61 58 55 53 51 50 48 45 43 40 38 36 36 35 33 30 29 29 28 26 24 23 22 21 21 21 20 20 20 18 17
35 36 37 38 38 39 41 43 44 45 45 44 43 41 40 38 37 36 35 35 34 34 34 31 29 29 29 30 34 37 38 40 42 43 44 45 47 49 50 51 53 55 56 57 59 60 60 60 60 60 59 59 59 59 59 58 56 55 53 51 48 45 43 40 36 36 36 35 33 31 29 29 28 26 24 22 22 23 22 21 19 19 19 19 18
36 37 37 38 39 40 41 42 43 45 46 47 45 44 43 41 39 37 37 36 36 35 36 34 31 29 28 29 32 35 35 35 37 40 42 43 45 47 49 50 51 54 55 57 58 59 60 60 59 57 57 57 57 57 58 58 58 56 54 51 49 46 43 39 37 36 36 34 33 31 30 30 28 25 23 22 22 23 22 19 18 18 19 20 19
37 38 39 39 40 41 42 43 44 45 47 48 48 46 45 43 41 39 38 38 37 36 36 37 35 32 29 29 30 33 34 33 33 36 39 41 43 45 46 49 50 52 55 56 58 59 59 59 57 56 56 55 55 56 58 59 58 56 54 52 49 46 43 39 36 36 36 34 33 31 30 29 27 25 24 22 22 22 21 19 18 19 19 19 20
38 39 39 40 40 41 43 44 46 47 48 48 49 49 47 45 43 41 40 39 39 37 37 38 37 34 31 30 29 31 33 33 33 34 35 38 41 43 44 47 50 52 53 56 57 58 58 58 57 55 54 53 53 54 56 57 57 56 54 51 49 46 41 36 35 36 36 36 34 33 31 30 29 26 24 22 21 22 21 19 20 20 19 19 19
42 43 43 43 42 42 43 45 46 47 49 50 50 50 50 48 45 44 43 41 40 39 39 38 38 36 33 31 30 29 31 32 33 33 34 35 38 41 44 47 49 51 52 54 56 56 56 56 55 54 53 52 51 51 53 55 55 54 52 50 47 42 37 33 34 36 36 36 36 35 33 30 28 25 23 21 21 21 21 21 20 19 19 19 19
46 46 47 47 47 46 46 46 47 48 49 50 52 52 51 50 49 47 46 44 42 42 40 40 40 39 36 34 32 30 29 30 32 33 34 35 36 39 43 46 48 49 50 52 54 54 55 55 55 53 53 51 49 48 50 53 53 52 49 46 42 37 34 33 35 36 37 37 36 34 32 29 27 24 23 22 22 22 21 21 19 18 19 19 19
49 49 50 51 51 50 50 49 49 49 49 50 52 53 52 51 50 49 48 47 45 44 43 42 41 41 38 36 34 33 30 29 29 31 33 35 37 38 42 44 45 47 49 50 52 53 53 53 53 52 51 49 47 47 49 51 51 48 45 41 38 35 34 34 35 37 38 37 36 34 31 29 26 24 24 24 23 23 21 20 19 18 19 19 19
52 53 54 55 54 54 54 53 53 53 52 52 53 54 54 53 52 51 49 49 48 46 45 44 43 43 41 38 36 35 33 30 29 29 30 33 36 38 41 42 43 45 47 49 50 50 50 50 50 49 48 46 45 47 48 49 49 47 43 40 37 36 36 35 36 37 38 37 37 35 31 28 26 25 25 24 23 22 20 19 18 18 19 19 19
54 56 57 58 58 58 57 57 57 57 56 56 55 55 55 55 55 53 51 50 50 49 47 46 45 45 43 41 38 37 35 33 31 29 28 30 34 37 40 41 42 43 44 46 47 48 48 48 46 45 45 44 44 47 48 48 48 46 42 39 38 37 38 38 37 37 39 39 37 33 29 27 26 25 24 23 22 21 20 19 19 18 18 19 19
57 59 60 61 61 61 61 61 61 60 60 60 59 58 57 56 56 55 53 51 50 49 48 47 46 46 45 43 40 38 36 35 34 31 28 28 31 35 37 40 42 41 41 42 44 46 46 45 43 41 41 41 43 46 47 44 44 44 41 39 39 39 40 39 37 39 41 39 35 30 28 26 25 24 23 22 20 20 19 19 18 18 18 20 20
60 61 63 63 64 64 65 65 64 64 63 62 61 61 59 56 55 55 53 51 50 49 49 48 46 47 46 45 42 40 38 37 36 34 31 28 29 32 35 39 41 41 40 39 40 41 42 42 39 38 39 41 44 47 47 43 40 40 40 40 41 42 41 39 39 41 41 36 31 28 26 25 24 23 22 20 19 20 19 18 18 17 19 20 21
61 63 65 66 66 66 66 66 67 66 65 63 62 62 60 56 53 51 52 51 49 48 48 47 46 46 46 45 44 41 39 38 37 36 34 31 30 31 34 38 41 40 39 39 38 38 39 39 36 35 37 41 44 46 46 44 40 38 37 39 41 40 39 38 38 38 36 31 28 26 25 25 24 22 21 20 19 19 19 18 18 18 19 21 22
61 64 66 67 67 67 66 65 66 65 64 63 61 61 61 57 53 51 51 49 48 47 47 46 46 46 45 44 43 42 41 40 38 36 34 32 31 31 33 39 42 42 41 42 40 37 36 36 34 34 37 40 41 43 44 44 42 40 38 38 38 37 37 37 36 33 30 28 27 26 26 25 23 22 21 20 19 19 19 18 18 19 19 20 22
62 64 65 65 65 65 63 62 61 61 61 61 60 59 59 56 54 53 52 50 47 46 45 46 47 46 45 43 42 42 42 41 37 34 32 32 32 32 32 37 43 46 45 44 41 38 37 37 37 38 40 41 41 41 43 44 43 42 40 38 38 38 39 38 35 31 29 29 28 27 25 24 23 21 20 19 18 18 18 18 18 19 19 20 21
60 61 60 59 59 59 58 58 58 56 55 55 56 57 58 55 51 49 51 51 48 43 41 43 45 44 43 42 42 42 42 41 37 33 32 32 32 32 31 34 42 47 46 43 41 40 41 41 41 42 43 45 44 43 44 44 44 44 44 41 39 40 39 36 33 31 30 29 27 26 25 23 22 20 19 17 17 17 18 18 17 18 18 19 20
53 55 54 53 52 52 52 53 53 52 51 50 48 47 47 47 45 40 40 42 43 40 38 39 41 40 39 40 41 40 40 39 38 36 35 33 31 32 31 32 38 44 47 45 43 42 43 44 44 45 46 48 49 48 47 46 47 48 47 43 42 41 38 34 33 33 31 30 28 27 25 23 21 19 18 17 17 17 17 17 16 17 17 19 20
47 50 50 49 48 48 48 48 48 47 45 41 36 33 34 40 46 46 43 40 39 39 39 38 38 38 37 37 37 38 37 37 37 36 36 35 33 32 31 30 34 42 47 47 46 45 45 45 46 47 48 50 51 51 49 48 48 48 47 45 44 42 38 35 35 34 31 30 28 26 24 22 20 19 18 17 17 16 16 16 15 16 17 18 19
46 48 48 48 47 45 42 40 38 36 33 31 32 36 38 42 48 53 52 48 42 37 36 36 35 36 36 35 34 35 35 35 35 34 34 34 32 31 31 30 33 40 45 48 49 48 47 46 47 48 49 50 52 52 51 50 48 48 47 46 44 41 38 36 35 32 30 28 27 25 22 20 19 18 18 18 17 16 15 14 14 15 16 17 19
46 47 48 47 46 44 40 38 37 38 39 40 42 45 47 46 45 45 45 43 38 33 32 32 31 32 33 33 33 32 31 33 35 34 32 32 31 29 27 28 32 38 45 49 50 50 49 48 48 48 48 49 51 52 53 52 50 49 48 46 43 40 37 36 34 31 30 28 26 24 21 19 19 18 18 17 16 14 14 13 14 14 15 17 19
47 48 48 46 46 47 46 45 46 47 47 47 47 45 43 41 38 35 34 34 33 33 33 32 30 28 29 29 30 30 29 30 34 34 31 29 28 26 25 28 34 40 45 49 50 50 50 49 49 48 48 48 49 51 53 52 51 50 48 45 42 39 38 36 33 31 29 27 24 22 20 19 19 18 17 16 14 13 13 13 13 14 15 16 19
46 47 47 46 47 48 48 47 47 47 46 46 44 41 39 38 36 34 33 33 33 33 33 32 30 28 27 26 26 28 28 27 30 32 31 27 25 24 28 34 40 45 47 49 50 50 50 49 49 49 48 47 48 50 51 51 49 47 45 42 41 40 39 35 32 30 28 25 23 21 20 19 19 17 16 14 13 12 12 12 12 14 15 17 19
43 44 45 44 44 44 44 44 43 43 42 40 38 36 37 37 36 33 31 31 32 32 32 32 30 29 30 27 24 24 26 25 26 30 31 27 24 26 32 37 41 45 47 48 48 49 49 49 49 49 48 47 47 47 49 48 47 44 42 40 40 38 36 33 31 29 27 24 22 21 20 19 18 16 15 13 12 12 12 12 13 14 15 16 18
40 41 41 41 41 40 40 39 37 35 34 34 32 31 31 31 30 29 28 29 30 29 29 29 29 29 29 27 24 23 24 25 26 29 30 28 26 29 34 38 41 43 46 47 48 48 48 48 48 48 47 45 43 44 46 46 44 41 40 39 37 34 32 31 30 27 25 23 22 21 20 18 17 16 14 12 12 11 12 12 13 15 16 16 17
38 38 37 37 37 37 36 35 34 33 32 33 33 32 32 32 33 35 35 35 34 33 31 29 28 27 27 27 26 25 25 25 27 31 33 31 29 30 34 38 40 41 45 48 48 48 48 48 48 46 44 41 40 41 42 42 40 39 38 37 36 34 33 31 28 25 24 23 22 20 19 18 17 15 13 12 11 12 12 13 14 15 16 16 17
36 36 35 34 34 35 34 34 33 33 32 32 32 31 31 31 31 32 33 33 33 34 34 33 30 28 27 27 27 27 26 26 28 33 35 34 32 31 33 37 39 40 43 46 47 48 48 47 45 42 40 38 37 37 37 37 37 37 36 35 34 33 30 27 25 24 23 22 21 19 18 17 16 14 12 11 12 12 13 14 14 15 16 16 17
35 35 35 34 33 34 34 33 33 32 30 29 28 28 28 27 27 28 28 28 27 28 30 32 34 33 30 27 26 26 26 26 28 33 35 35 33 32 33 36 38 39 41 45 47 47 46 43 39 37 37 36 34 33 34 35 36 36 35 34 32 30 27 25 24 23 22 21 19 18 17 16 14 12 11 11 12 12 13 14 15 15 16 16 17
33 34 34 33 33 34 34 33 33 32 31 30 29 29 29 29 28 28 27 27 26 26 27 29 31 32 30 28 26 24 24 25 27 31 34 34 33 32 33 36 37 38 40 42 44 43 41 37 34 33 34 33 32 32 33 34 35 34 34 32 30 28 26 25 24 22 21 19 18 17 15 14 13 12 11 12 12 13 13 14 15 16 17 17 17
32 32 32 32 32 32 32 32 31 30 30 29 29 28 28 27 25 25 25 26 26 26 26 27 27 27 27 26 23 21 22 25 27 30 32 33 33 33 33 34 35 34 35 37 37 36 35 33 30 30 30 30 30 30 31 32 33 32 31 29 27 25 24 23 21 20 19 18 17 15 14 13 12 12 12 12 13 13 14 15 16 17 17 17 17
30 30 30 31 31 30 30 30 30 29 28 27 26 24 23 21 21 20 22 24 25 25 25 26 25 24 24 22 20 18 21 25 28 29 30 31 31 31 32 32 31 30 30 32 33 33 31 29 28 28 28 27 28 28 29 30 30 29 27 26 24 23 22 20 19 18 17 16 15 14 14 13 12 12 12 12 13 14 14 15 17 17 17 17 18
28 28 28 29 28 28 27 27 26 25 24 22 21 20 19 18 19 18 18 20 22 23 23 22 21 20 20 18 16 18 21 24 26 27 28 28 29 29 29 28 27 25 26 27 29 29 27 27 28 28 28 28 29 30 30 29 27 26 24 22 21 20 19 17 16 16 15 15 14 13 13 13 12 12 12 12 13 14 16 16 16 16 16 18 19
25 25 25 26 26 25 24 22 20 19 18 18 18 18 17 17 18 18 17 17 18 18 17 16 15 15 15 14 15 17 19 21 23 25 26 26 26 26 26 24 23 22 24 26 27 27 25 24 25 26 28 29 31 31 29 27 26 24 22 20 19 18 16 15 15 14 14 13 13 13 12 12 12 12 13 13 14 15 16 16 16 16 17 19 20
24 23 22 22 22 22 20 19 17 15 14 14 15 15 14 14 14 13 12 12 12 12 11 11 10 11 12 13 14 17 19 20 22 23 23 23 23 23 22 21 21 23 26 27 26 24 23 23 23 26 29 30 30 28 26 24 22 21 20 18 17 16 15 14 13 13 12 12 12 12 12 12 12 13 13 14 14 15 16 16 16 17 19 20 21
24 23 22 21 21 20 19 18 16 13 11 10 9 9 8 7 7 7 7 6 6 6 6 7 8 9 11 12 14 16 17 18 20 20 20 19 19 20 21 22 23 25 26 25 24 23 24 26 27 28 28 27 25 24 22 21 20 18 17 16 15 13 13 12 12 11 11 11 11 11 12 12 13 13 14 14 14 15 16 16 17 19 21 22 22
25 25 24 23 22 21 20 18 17 15 13 11 9 8 6 5 4 2 2 2 2 2 3 4 5 7 9 11 13 14 15 15 16 16 16 17 19 22 24 25 26 26 25 24 25 27 28 29 29 27 26 24 22 21 20 19 17 16 15 14 13 12 11 10 10 10 9 10 10 11 12 13 13 13 14 15 15 16 16 17 19 21 23 23 23
27 27 26 25 24 23 21 19 18 17 15 13 12 10 9 7 6 4 3 2 1 1 2 3 4 6 8 9 10 11 12 12 14 15 17 20 24 26 26 26 26 25 25 26 28 30 30 29 27 25 23 22 20 19 18 17 16 14 13 12 11 10 9 8 8 8 8 9 10 11 12 13 13 14 15 16 16 16 16 17 20 23 24 23 23
29 29 28 28 27 25 24 23 21 20 18 16 15 13 12 10 9 7 6 5 4 4 3 3 4 6 7 7 8 10 12 14 17 20 23 25 27 28 26 25 25 26 26 28 29 28 27 25 23 22 21 20 18 17 16 15 13 12 11 9 8 7 6 6 7 8 9 10 11 11 12 13 14 15 15 16 16 15 16 19 23 24 24 23 23
Wind_Direction
360 359 357 355 352 348 341 331 319 308 298 290 285 283 282 280 278 276 273 271 269 268 267 267 265 264 262 260 258 256 254 251 249 247 245 243 242 240 239 238 237 236 235 234 234 233 234 234 235 235 235 236 236 236 236 237 237 238 238 239 241 241 240 239 242 248 252 254 257 262 266 270 276 280 284 291 296 301 304 305 306 309 312 317 319
1 359 358 357 355 352 346 340 333 324 315 306 297 291 288 285 283 280 276 274 272 271 269 269 267 266 264 263 261 258 255 252 250 248 246 245 243 241 239 238 238 237 236 235 234 233 233 234 234 235 235 235 235 235 236 237 238 238 238 240 241 241 240 239 239 243 250 255 257 259 260 263 268 271 274 279 284 289 293 296 298 302 304 308 310
4 2 359 358 357 355 350 345 340 333 326 318 311 305 300 295 290 284 281 278 275 273 272 271 270 268 266 265 262 259 257 254 251 249 247 246 244 242 240 239 238 237 236 235 234 233 233 233 234 234 234 234 234 234 235 236 238 238 239 239 240 240 238 239 239 241 246 251 252 253 255 257 259 262 266 270 272 277 282 286 290 294 299 303 304
1 1 1 1 359 359 357 353 348 343 336 326 317 310 305 301 297 292 288 284 279 277 275 273 271 270 268 266 263 261 259 256 253 250 248 246 244 243 242 240 239 238 238 237 235 235 234 234 234 234 234 234 234 234 234 236 237 237 237 238 239 239 238 239 241 242 243 245 246 247 249 252 254 257 261 265 269 273 277 280 284 288 293 297 297
359 358 358 358 357 358 358 358 355 351 345 337 327 317 307 299 296 293 292 289 286 283 279 275 273 271 270 268 266 265 263 259 256 253 250 247 245 243 242 241 240 239 239 238 237 236 236 236 236 235 235 234 234 234 235 236 236 236 236 237 238 238 238 239 241 242 241 241 244 245 246 249 252 255 259 263 267 272 275 278 281 285 289 291 292
359 358 357 355 355 354 354 356 356 354 350 345 338 329 317 304 295 290 289 289 288 287 284 280 277 274 273 271 268 267 264 261 258 256 253 249 246 244 242 241 241 240 240 239 238 237 237 237 237 236 236 236 235 235 235 236 236 236 236 236 237 237 237 237 238 240 240 240 241 243 246 249 250 253 258 262 266 271 274 277 280 283 285 286 289
354 354 355 354 354 354 353 353 353 353 352 348 344 338 329 317 304 293 287 284 283 284 284 283 281 279 276 273 270 267 264 262 260 257 254 251 248 246 244 242 241 240 239 239 239 238 237 237 237 237 237 237 237 237 236 236 236 236 236 237 237 236 236 236 237 238 239 238 239 242 246 249 250 252 256 260 264 269 273 276 279 282 283 285 289
347 348 349 350 350 351 351 350 350 349 348 347 345 342 337 330 319 305 292 283 279 280 281 282 282 281 278 274 271 267 265 262 260 257 255 252 249 247 245 244 243 242 240 238 238 238 237 237 237 238 238 238 239 238 238 237 237 236 235 235 235 235 235 236 237 238 239 238 238 239 243 247 249 250 253 258 264 268 272 275 278 281 283 286 293
342 342 343 344 345 345 345 345 345 345 344 343 344 343 341 337 330 320 305 290 281 278 278 279 279 278 276 274 271 267 264 262 260 258 255 253 251 249 247 245 244 243 242 240 238 237 237 237 237 238 238 238 238 239 239 239 238 237 236 234 234 234 234 235 237 238 239 237 235 236 239 243 247 249 252 257 262 266 269 274 278 280 281 285 294
338 339 339 339 339 339 339 339 340 341 341 340 340 341 341 339 336 331 321 305 289 280 276 275 275 276 275 274 270 267 264 262 261 259 257 256 254 252 249 247 245 244 243 242 240 238 237 236 236 237 237 236 236 237 237 237 237 238 237 237 236 234 233 234 236 238 239 238 236 235 237 241 246 249 252 256 259 262 266 272 277 280 282 286 295
335 336 336 336 335 335 334 334 334 335 335 336 336 336 337 337 336 334 330 321 305 289 280 275 274 276 277 274 270 267 265 263 261 259 258 256 254 253 251 249 246 244 243 243 242 241 238 237 235 235 235 234 234 234 234 235 235 234 234 234 235 236 236 237 238 239 239 237 235 235 237 241 244 245 249 254 257 261 264 268 273 277 280 285 295
331 331 332 333 334 334 333 332 331 331 330 331 331 332 333 333 333 333 332 328 318 302 289 282 279 278 277 275 271 268 268 266 263 260 259 257 255 253 251 250 248 245 244 244 244 243 241 238 236 235 234 233 232 232 232 232 232 231 231 230 230 231 234 236 237 238 239 237 235 235 237 241 241 242 247 253 257 260 262 266 270 273 276 283 292
327 326 327 329 331 332 332 331 331 330 329 328 326 327 329 329 330 330 329 328 324 314 302 290 285 282 278 276 273 270 270 268 263 262 261 259 257 254 251 249 248 247 246 245 245 244 243 241 238 237 235 234 232 231 231 230 229 228 227 227 227 227 229 231 233 235 237 237 235 235 238 240 240 243 248 252 255 258 260 263 267 271 276 283 291
324 323 323 324 325 328 329 329 330 330 329 327 324 323 324 324 326 326 325 324 323 321 314 302 292 286 281 279 275 272 272 269 264 263 262 259 257 256 252 249 248 248 247 246 246 245 245 243 241 239 237 234 232 231 230 229 228 226 224 224 225 226 227 228 230 232 234 234 234 235 238 239 240 244 248 250 253 255 258 262 267 272 277 284 291
321 321 320 320 321 323 324 326 327 328 328 327 325 323 321 320 320 321 321 320 319 319 317 311 302 293 286 282 278 274 272 269 266 265 263 259 258 256 253 250 248 248 247 246 245 245 246 245 244 242 240 237 235 232 230 229 227 226 225 225 225 225 226 227 229 233 235 235 234 235 237 239 241 244 247 249 251 253 257 263 268 273 279 284 292
318 318 317 318 319 320 321 322 323 324 325 325 323 322 321 319 318 318 317 316 316 316 315 313 308 299 292 285 280 277 275 271 268 266 264 261 258 255 252 250 248 247 246 246 245 244 244 245 244 243 242 240 237 234 232 230 228 226 225 226 225 225 226 227 229 234 235 235 235 235 235 238 242 244 245 247 249 251 256 262 269 274 280 285 290
316 315 315 316 316 317 318 318 319 320 321 321 320 319 318 317 316 316 314 312 311 312 312 311 308 303 296 288 282 280 278 275 271 268 264 260 256 253 251 249 249 248 247 246 245 244 244 244 244 243 242 241 238 235 232 229 227 226 226 225 225 224 224 224 228 231 233 234 235 234 234 237 241 242 242 242 246 252 257 262 268 273 278 283 287
313 312 312 314 314 315 316 316 316 316 315 316 316 316 315 314 313 313 311 310 308 308 308 307 306 304 299 293 287 283 280 277 274 269 265 260 256 253 250 249 249 248 246 245 244 244 243 243 243 242 242 240 237 234 232 229 226 225 225 225 224 223 222 223 226 230 230 231 233 232 232 234 236 236 237 238 243 250 255 259 263 267 272 279 286
311 310 310 312 313 313 314 313 313 313 312 312 312 312 312 312 311 310 308 306 306 305 304 303 303 303 301 297 292 286 281 278 273 269 266 262 257 253 250 248 247 246 245 244 243 242 242 242 241 241 240 239 236 233 231 228 226 225 225 225 224 223 223 225 228 230 230 231 231 230 230 232 233 234 235 237 240 246 252 256 259 264 271 278 286
309 308 308 309 310 310 311 311 311 311 310 309 309 308 309 309 309 308 306 304 303 302 302 301 299 299 300 299 294 289 284 280 275 271 268 264 259 254 249 247 247 245 244 243 242 242 241 241 240 239 238 236 234 232 230 228 226 225 225 225 225 225 225 226 228 230 231 232 232 231 231 232 233 231 230 232 235 241 248 254 257 263 270 276 283
304 305 306 306 306 306 306 307 308 308 308 308 307 306 305 306 306 306 306 304 301 299 299 299 298 296 296 297 295 292 288 283 278 274 269 265 261 255 250 249 247 245 244 243 243 243 242 241 239 237 235 234 231 229 227 226 225 225 225 226 227 227 228 228 229 231 231 232 232 232 232 231 228 225 224 226 231 237 244 251 256 262 269 276 282
302 302 302 302 302 303 303 304 304 305 305 306 306 304 303 302 302 303 303 302 301 298 296 296 296 294 293 293 293 293 291 287 281 277 271 266 261 256 253 252 250 247 244 244 244 244 243 242 240 238 236 233 230 226 225 225 225 224 223 225 225 226 227 228 230 232 231 230 230 230 229 227 224 221 221 223 228 234 241 247 253 261 269 275 281
299 299 299 299 299 300 300 301 301 302 302 303 303 302 300 300 300 299 299 299 299 298 295 294 293 293 292 290 290 291 291 289 284 279 273 266 261 256 252 252 251 247 246 246 246 246 245 244 242 240 238 234 228 223 221 222 223 222 221 222 223 225 228 228 228 229 229 228 228 226 225 223 220 218 220 224 229 235 239 245 252 261 269 274 279
297 296 297 297 298 298 299 299 299 300 300 300 300 300 298 298 298 297 296 297 297 296 294 293 291 290 290 290 289 288 288 288 286 281 275 267 260 254 249 247 247 246 246 247 248 246 246 245 243 241 238 233 227 221 217 219 222 221 219 221 224 226 228 226 224 225 227 227 226 223 221 219 218 219 223 226 231 236 240 247 254 262 268 272 277
295 295 295 296 296 297 297 297 297 297 298 298 298 297 297 296 295 295 294 294 293 292 292 291 289 288 288 287 287 287 286 286 284 281 277 269 260 253 245 241 243 244 244 245 245 245 245 245 244 241 238 232 225 217 211 213 220 222 221 222 225 226 226 224 223 225 227 226 223 220 218 218 218 221 224 227 231 237 243 249 255 262 268 272 275
294 294 294 294 294 295 295 295 294 294 294 294 295 295 294 294 293 292 292 291 289 289 289 288 287 286 285 285 286 285 283 282 281 279 275 268 260 252 241 236 239 243 243 243 244 244 244 242 240 238 233 227 218 211 207 208 216 224 225 224 224 224 223 223 223 225 225 222 218 216 216 217 219 221 225 228 233 240 246 251 257 262 267 271 275
292 292 292 292 292 293 293 293 292 291 291 291 291 291 291 291 290 289 288 287 285 285 285 285 284 283 282 283 284 282 279 278 277 276 273 268 261 252 240 232 232 236 238 238 238 239 240 239 237 233 227 220 215 212 212 211 212 216 218 218 218 220 222 223 224 224 220 215 212 213 214 218 220 222 225 229 235 243 250 254 259 263 267 272 276
291 291 291 291 291 291 291 291 291 291 290 289 289 288 288 288 287 286 284 283 281 280 280 280 280 280 280 280 281 279 276 273 272 274 275 272 264 253 239 229 226 228 231 233 232 232 232 232 229 225 218 214 211 212 213 211 207 206 207 209 213 217 220 221 220 218 212 208 209 212 214 218 220 222 226 231 237 245 252 257 263 266 270 275 279
291 291 290 291 290 290 291 291 291 291 291 290 288 286 285 285 285 284 282 280 277 277 276 276 278 278 276 275 275 274 272 271 272 275 279 277 269 258 244 231 225 224 228 230 228 225 222 219 217 214 210 207 206 207 207 205 203 202 202 205 210 214 217 218 215 211 208 208 211 213 215 218 220 222 228 232 238 247 254 260 266 269 273 278 281
292 291 291 291 291 291 292 291 291 291 291 290 289 287 285 284 285 284 282 279 277 275 272 271 274 274 272 270 270 269 269 272 274 275 274 273 270 263 251 236 226 223 225 226 224 221 217 213 212 211 208 205 204 204 204 203 201 199 199 203 210 214 216 216 213 210 209 210 211 213 214 217 220 224 229 234 240 249 255 260 266 271 275 281 284
294 293 293 293 293 294 294 293 292 292 292 292 292 291 287 284 281 279 277 277 279 278 274 269 268 266 264 265 267 268 268 269 270 270 268 268 267 264 255 237 224 222 223 221 219 218 216 212 210 208 206 205 204 204 205 204 201 200 201 205 211 215 217 215 212 210 209 208 209 211 213 215 220 225 231 236 241 248 254 260 267 272 277 283 288
296 295 296 296 296 296 295 295 295 296 296 294 289 282 278 276 275 272 271 273 277 277 275 270 265 260 257 257 260 264 267 267 267 266 266 265 264 263 257 239 222 221 224 221 218 217 215 211 209 208 205 203 202 203 205 204 203 204 207 210 212 215 215 213 211 209 208 207 208 209 211 215 220 226 232 237 242 247 252 259 267 273 279 285 291
297 296 296 296 296 294 292 291 292 292 288 281 275 273 275 278 280 280 280 280 281 276 270 266 262 257 255 254 254 257 262 265 266 266 265 264 262 260 256 241 222 218 220 219 216 216 214 210 210 209 207 204 202 203 204 204 206 209 212 214 216 216 214 211 209 207 206 206 207 208 211 216 221 227 233 239 243 248 253 260 268 275 282 288 295
296 295 295 294 291 289 285 283 281 280 277 274 275 278 280 281 283 286 288 289 288 282 273 266 259 254 254 254 252 253 255 258 262 264 264 262 260 257 252 239 222 216 218 218 215 214 212 209 209 209 209 206 204 204 204 205 207 211 213 216 218 218 214 211 208 206 205 205 206 208 212 217 223 228 234 239 244 250 257 264 272 279 287 294 299
296 294 293 291 288 286 285 283 282 281 281 281 280 280 280 280 280 282 283 282 283 283 281 275 267 259 256 254 252 252 249 248 252 258 261 260 256 248 237 226 217 214 215 216 215 213 212 210 209 209 210 209 207 207 207 207 209 211 213 215 216 214 212 211 207 205 205 205 206 209 213 218 225 230 234 239 246 253 261 269 279 287 294 300 301
296 294 292 291 289 287 287 286 285 284 283 282 280 277 276 277 277 275 270 268 270 275 277 276 273 270 267 261 255 251 248 243 244 249 253 253 247 232 219 215 215 213 211 211 213 212 211 211 212 211 211 211 211 211 210 211 212 213 214 214 212 210 208 207 204 203 204 203 205 209 214 220 227 231 235 241 248 255 265 276 285 292 298 302 302
297 295 294 293 292 291 290 289 288 286 285 283 280 277 277 278 278 275 271 267 267 271 273 272 271 270 269 267 261 253 247 241 238 241 245 245 237 225 217 216 216 214 211 210 210 209 209 211 213 213 212 213 214 214 214 214 214 213 212 211 209 207 205 203 202 202 202 202 205 210 215 221 228 232 236 244 251 259 270 282 290 296 301 304 305
302 300 298 297 295 293 290 288 286 284 283 282 281 279 278 275 270 268 268 267 266 267 270 271 270 267 265 266 266 260 253 243 234 233 235 233 225 221 220 219 217 215 213 211 210 209 209 211 211 212 213 215 217 218 217 214 213 211 208 206 204 202 201 201 200 200 201 202 206 210 214 219 226 232 237 245 255 266 278 287 295 300 303 305 309
310 308 305 303 298 292 287 283 281 279 277 276 275 273 270 266 263 264 266 268 266 263 262 266 269 266 264 266 267 264 257 244 230 225 226 225 221 220 220 220 218 216 214 212 210 209 209 209 210 211 212 216 219 221 218 213 209 207 204 201 198 197 198 199 199 199 201 204 207 210 214 219 225 231 239 249 260 272 283 290 296 302 306 310 314
316 314 311 308 304 298 293 288 284 281 277 276 276 276 274 273 272 272 271 271 269 264 260 260 262 263 262 266 268 264 256 244 231 224 223 223 222 221 220 220 220 218 215 212 211 209 208 209 211 212 214 218 221 220 215 209 205 202 199 197 197 198 198 198 198 200 204 206 208 211 214 219 226 232 241 254 266 276 285 292 299 305 310 314 316
320 317 315 312 308 303 298 292 287 283 278 274 274 276 276 276 278 278 277 275 274 271 264 259 258 259 262 268 271 264 254 245 236 227 224 223 222 221 220 221 221 220 217 213 210 207 207 210 213 214 217 219 219 213 206 203 200 197 194 193 195 195 196 197 199 202 205 207 209 213 216 221 227 235 245 258 270 278 286 295 303 308 310 312 316
323 320 317 316 312 306 301 297 294 290 284 278 275 275 274 273 271 269 268 267 269 270 269 264 261 261 264 269 271 262 250 244 238 230 224 222 222 221 221 222 223 223 219 214 210 209 210 211 213 216 219 217 211 203 199 197 194 193 192 191 191 192 194 198 200 202 205 209 212 216 220 225 232 241 250 260 270 280 289 298 305 308 308 311 318
327 324 322 320 317 313 309 306 303 298 293 289 288 286 286 285 280 273 270 271 272 271 269 267 266 266 266 269 269 259 244 237 235 229 223 220 220 220 222 224 224 223 220 217 215 214 214 213 213 215 215 210 203 198 196 193 190 189 189 188 189 192 196 199 201 204 207 212 215 219 226 232 238 247 256 264 273 283 293 301 305 306 307 313 321
332 329 328 327 325 322 318 313 309 305 303 301 299 296 294 294 291 283 277 277 278 276 271 269 268 268 268 269 266 251 237 232 229 226 222 220 219 220 222 224 222 220 217 214 214 214 212 210 208 205 201 196 192 190 189 186 185 185 186 187 190 194 197 200 204 208 211 216 220 225 232 239 245 254 263 271 279 287 296 302 304 305 311 318 323
339 337 335 334 332 329 326 322 316 310 307 304 301 300 299 297 296 292 284 280 280 279 275 271 268 265 264 264 256 242 234 229 224 222 221 220 220 221 222 222 220 216 210 206 205 205 203 203 203 199 191 186 183 181 179 178 179 181 183 186 190 194 197 201 207 211 215 221 227 232 239 246 253 261 268 275 283 292 298 301 303 306 315 322 323
348 346 343 341 339 337 336 336 334 327 319 313 309 308 308 304 300 298 294 287 283 280 274 269 265 258 254 251 244 236 231 225 219 217 218 219 220 220 218 215 209 202 195 192 192 192 191 194 197 194 186 180 177 175 175 175 175 177 181 185 188 193 197 202 207 213 219 226 233 240 247 254 260 267 273 279 287 294 296 297 302 310 319 322 321
357 357 354 351 349 348 347 349 351 346 337 328 320 315 312 306 299 293 288 283 280 276 270 264 256 247 241 236 231 227 222 216 212 212 215 217 217 213 207 200 190 183 180 177 177 178 178 179 182 182 178 174 172 171 171 172 173 176 180 184 188 193 198 203 210 217 224 231 239 246 254 261 267 272 277 283 288 290 293 297 305 317 321 319 316
7 7 7 5 4 5 5 4 4 2 358 351 339 329 322 313 299 288 283 279 275 271 264 255 243 233 228 223 219 216 212 208 206 207 210 210 203 193 186 179 174 170 168 165 164 166 168 168 169 171 170 168 168 167 168 169 171 174 178 182 187 193 199 206 214 222 229 238 247 254 260 267 272 274 278 281 283 287 295 304 313 319 318 314 310
17 17 17 16 17 18 18 17 17 18 18 16 13 11 7 358 345 329 309 291 273 254 245 239 229 222 217 213 209 206 203 200 199 198 195 187 176 169 166 164 162 161 161 161 161 162 163 162 162 162 162 163 163 164 165 167 169 173 177 182 187 193 200 209 219 230 239 249 257 262 266 271 273 273 273 277 285 294 305 312 314 314 311 308 307
28 27 27 26 26 26 26 26 27 28 27 27 29 32 33 34 36 44 50 51 73 143 181 202 205 204 204 203 200 195 190 183 178 175 170 164 158 155 154 155 155 156 158 159 158 157 157 157 157 157 158 159 160 162 163 166 168 172 176 182 187 193 203 215 229 243 252 257 263 267 269 271 271 272 276 284 295 305 310 309 307 308 307 305 304
37 36 35 34 33 33 32 32 33 33 32 33 35 36 39 43 47 53 61 71 86 107 124 142 159 169 174 175 174 169 164 159 154 153 152 150 148 147 147 149 150 151 153 154 152 152 152 152 153 154 156 158 159 161 164 166 168 173 178 183 190 200 214 230 243 254 260 263 266 267 268 270 273 277 285 294 302 306 305 303 303 305 305 302 302